This demonstration page uses our WeatherBlox Daily Observations layout. Learn more.

Left ArrowRight Arrow

39.12711, -84.51439

Hourly Observations for June 12, 2016

Temp ( °F °C ) Dew Point ( °F °C ) Humidity (%) Winds ( mph kmh ) Pressure ( in mb ) Visibility ( mi km ) Precip ( " mm )
12:53 am 00:53 Clear 73 22.8 66 18.9 79 79 N N/A 30.01 1016 10 16 N/A
1:53 am 01:53 Clear 71 21.7 66 18.9 84 84 VRB 3 6 30.01 1016 10 16 N/A
2:53 am 02:53 Clear 72 22.2 65 18.3 79 79 N N/A 30.01 1016 10 16 N/A
3:53 am 03:53 Clear 73 22.8 64 17.8 74 74 N N/A 30.00 1016 10 16 N/A
4:53 am 04:53 Clear 67 19.4 65 18.3 93 93 N N/A 30.00 1016 10 16 N/A
5:53 am 05:53 Clear 66 18.9 65 18.3 96 96 N N/A 30.01 1016 10 16 N/A
6:53 am 06:53 Sunny 67 19.4 66 18.9 97 97 N N/A 30.02 1017 8 13 N/A
7:53 am 07:53 Partly Cloudy 73 22.8 69 20.6 87 87 N N/A 30.03 1017 10 16 N/A
8:53 am 08:53 Sunny 79 26.1 69 20.6 72 72 SSW 5 7 30.02 1017 10 16 N/A
9:53 am 09:53 Mostly Sunny 83 28.3 69 20.6 63 63 W 5 7 30.03 1017 10 16 N/A
10:53 am 10:53 Mostly Cloudy 85 29.4 70 21.1 61 61 NNW 7 11 30.03 1017 10 16 N/A
11:53 am 11:53 Sunny 86 30 72 22.2 63 63 W 8 13 30.02 1017 10 16 N/A
12:53 pm 12:53 Partly Cloudy 87 30.6 72 22.2 61 61 VRB 7 11 30.01 1016 10 16 N/A
1:53 pm 13:53 Partly Cloudy 88 31.1 72 22.2 59 59 W 13 20 29.99 1016 10 16 N/A
2:53 pm 14:53 Partly Cloudy 90 32.2 74 23.3 59 59 WNW 7 11 29.98 1015 10 16 N/A
3:53 pm 15:53 Mostly Cloudy 89 31.7 71 21.7 55 55 N 12 19 29.96 1015 10 16 N/A
4:53 pm 16:53 Mostly Sunny 90 32.2 69 20.6 50 50 NNE 10 17 29.96 1015 10 16 N/A
5:53 pm 17:53 Mostly Sunny 90 32.2 64 17.8 42 42 N 7 11 29.97 1015 10 16 N/A
6:53 pm 18:53 Mostly Sunny 88 31 64 18 46 46 N 13 20 29.91 1013 10 16 N/A
7:53 pm 19:53 Sunny 83 28.3 62 16.7 49 49 NNE 10 17 29.98 1015 10 16 N/A
8:53 pm 20:53 Sunny 80 26.7 50 10 35 35 N 8 13 30.01 1016 10 16 N/A
9:53 pm 21:53 Clear 71 21.7 58 14.4 63 63 N N/A 30.01 1016 10 16 N/A
10:53 pm 22:53 Clear 68 20 54 12.2 61 61 ENE 3 6 30.02 1017 10 16 N/A
11:53 pm 23:53 Clear 65 18.3 54 12.2 68 68 NNE 3 6 30.01 1016 10 16 N/A

Powered by AerisWeather